PGA225 LEMG-LPPR

Flight info

Callsign PGA225
Flight time 1h 2m
Altitude 34000
Route SVL M744 ROSAL DCT LASIB DCT ABLEG
Aircraft A21N/M-SDE3FGHIRWY/LB1

Departure

Time 2026-05-06 14:33
Airport Málaga-Costa del Sol Airport (LEMG)

Arrival

Time 2026-05-06 15:36
Airport Francisco de Sá Carneiro Airport (LPPR)
Time Latitude Longitude Altitude Speed Heading
2026-05-06 14:05 36.67387 -4.49099 63 ft 0 kts 111°
2026-05-06 14:22 36.67390 -4.49110 63 ft 2 kts 111°
2026-05-06 14:22 36.67395 -4.49127 63 ft 2 kts 111°
2026-05-06 14:23 36.67400 -4.49143 63 ft 0 kts 111°
2026-05-06 14:23 36.67404 -4.49150 63 ft 1 kts 163°
2026-05-06 14:23 36.67419 -4.49151 63 ft 2 kts 192°
2026-05-06 14:23 36.67432 -4.49143 63 ft 2 kts 226°
2026-05-06 14:24 36.67439 -4.49134 63 ft 0 kts 224°
2026-05-06 14:24 36.67441 -4.49132 63 ft 0 kts 222°
2026-05-06 14:26 36.67440 -4.49133 63 ft 1 kts 222°
2026-05-06 14:27 36.67423 -4.49152 63 ft 5 kts 222°
2026-05-06 14:27 36.67383 -4.49197 63 ft 9 kts 222°
2026-05-06 14:27 36.67351 -4.49274 63 ft 10 kts 275°
2026-05-06 14:27 36.67326 -4.49359 63 ft 10 kts 258°
2026-05-06 14:28 36.67363 -4.49438 63 ft 11 kts 312°
2026-05-06 14:28 36.67420 -4.49518 63 ft 13 kts 312°
2026-05-06 14:28 36.67484 -4.49606 63 ft 13 kts 312°
2026-05-06 14:28 36.67547 -4.49696 63 ft 14 kts 311°
2026-05-06 14:29 36.67614 -4.49792 63 ft 15 kts 311°
2026-05-06 14:29 36.67688 -4.49896 63 ft 16 kts 311°
2026-05-06 14:29 36.67767 -4.50008 63 ft 17 kts 311°
2026-05-06 14:29 36.67851 -4.50125 63 ft 18 kts 312°
2026-05-06 14:30 36.67940 -4.50249 63 ft 19 kts 312°
2026-05-06 14:30 36.68031 -4.50376 63 ft 19 kts 311°
2026-05-06 14:30 36.68121 -4.50506 63 ft 19 kts 311°
2026-05-06 14:30 36.68207 -4.50628 63 ft 18 kts 312°
2026-05-06 14:31 36.68293 -4.50749 63 ft 18 kts 312°
2026-05-06 14:31 36.68378 -4.50868 63 ft 18 kts 311°
2026-05-06 14:31 36.68460 -4.50985 63 ft 17 kts 311°
2026-05-06 14:31 36.68496 -4.51105 63 ft 15 kts 255°
2026-05-06 14:32 36.68447 -4.51215 64 ft 14 kts 198°
2026-05-06 14:32 36.68396 -4.51178 63 ft 1 kts 132°
2026-05-06 14:32 36.68383 -4.51161 63 ft 19 kts 131°
2026-05-06 14:33 36.68115 -4.50785 63 ft 93 kts 132°
2026-05-06 14:33 36.67538 -4.49978 63 ft 154 kts 133°
2026-05-06 14:33 36.66739 -4.48872 344 ft 179 kts 132°
2026-05-06 14:33 36.65916 -4.47709 1002 ft 183 kts 131°
2026-05-06 14:34 36.65078 -4.46537 1710 ft 184 kts 132°
2026-05-06 14:34 36.64208 -4.45320 2232 ft 194 kts 131°
2026-05-06 14:34 36.63291 -4.44046 2686 ft 207 kts 135°
2026-05-06 14:34 36.61994 -4.43143 3058 ft 225 kts 171°
2026-05-06 14:35 36.60395 -4.43349 3393 ft 245 kts 199°
2026-05-06 14:35 36.58735 -4.44029 3997 ft 256 kts 198°
2026-05-06 14:35 36.57029 -4.44699 4792 ft 258 kts 197°
2026-05-06 14:35 36.55327 -4.45339 5586 ft 260 kts 197°
2026-05-06 14:36 36.53680 -4.46244 6316 ft 264 kts 220°
2026-05-06 14:36 36.52621 -4.48057 7054 ft 265 kts 247°
2026-05-06 14:36 36.51947 -4.50171 7841 ft 266 kts 249°
2026-05-06 14:36 36.51269 -4.52303 8613 ft 267 kts 249°
2026-05-06 14:37 36.50835 -4.54520 9357 ft 270 kts 265°
2026-05-06 14:37 36.50914 -4.56877 9899 ft 281 kts 276°
2026-05-06 14:37 36.51207 -4.59349 10342 ft 294 kts 278°
2026-05-06 14:37 36.51528 -4.61904 10683 ft 310 kts 278°
2026-05-06 14:38 36.51855 -4.64619 10995 ft 327 kts 277°
2026-05-06 14:38 36.52207 -4.67444 11453 ft 339 kts 279°
2026-05-06 14:38 36.52663 -4.70337 12165 ft 342 kts 280°
2026-05-06 14:38 36.53133 -4.73242 12892 ft 343 kts 280°
2026-05-06 14:39 36.53596 -4.76103 13594 ft 345 kts 280°
2026-05-06 14:39 36.54068 -4.79033 14269 ft 348 kts 279°
2026-05-06 14:39 36.54541 -4.81979 14925 ft 350 kts 279°
2026-05-06 14:39 36.55018 -4.84964 15560 ft 353 kts 279°
2026-05-06 14:40 36.55495 -4.87963 16189 ft 355 kts 279°
2026-05-06 14:40 36.55986 -4.90947 16835 ft 357 kts 281°
2026-05-06 14:40 36.56611 -4.93935 17451 ft 360 kts 283°
2026-05-06 14:40 36.57303 -4.96909 18071 ft 361 kts 284°
2026-05-06 14:41 36.58012 -4.99928 18662 ft 363 kts 284°
2026-05-06 14:41 36.58718 -5.02941 19214 ft 366 kts 284°
2026-05-06 14:41 36.59432 -5.05983 19759 ft 369 kts 283°
2026-05-06 14:41 36.60146 -5.09035 20288 ft 371 kts 283°
2026-05-06 14:42 36.60861 -5.12098 20783 ft 374 kts 283°
2026-05-06 14:42 36.61594 -5.15247 21274 ft 377 kts 283°
2026-05-06 14:42 36.62321 -5.18379 21747 ft 380 kts 283°
2026-05-06 14:42 36.63053 -5.21533 22211 ft 383 kts 283°
2026-05-06 14:43 36.63785 -5.24686 22702 ft 384 kts 283°
2026-05-06 14:43 36.64529 -5.27906 23170 ft 386 kts 283°
2026-05-06 14:43 36.65262 -5.31074 23630 ft 388 kts 283°
2026-05-06 14:43 36.66014 -5.34336 24090 ft 390 kts 282°
2026-05-06 14:44 36.66762 -5.37548 24539 ft 393 kts 284°
2026-05-06 14:44 36.67947 -5.40651 24914 ft 404 kts 300°
2026-05-06 14:44 36.69910 -5.43197 25313 ft 417 kts 318°
2026-05-06 14:45 36.75153 -5.46522 26117 ft 428 kts 330°
2026-05-06 14:45 36.77897 -5.48072 26443 ft 432 kts 330°
2026-05-06 14:45 36.80619 -5.49623 26794 ft 433 kts 330°
2026-05-06 14:45 36.83328 -5.51179 27277 ft 431 kts 329°
2026-05-06 14:46 36.86087 -5.52769 27664 ft 432 kts 329°
2026-05-06 14:46 36.88788 -5.54332 27973 ft 434 kts 329°
2026-05-06 14:46 36.91543 -5.55928 28278 ft 436 kts 329°
2026-05-06 14:46 36.94291 -5.57521 28576 ft 439 kts 329°
2026-05-06 14:47 36.97066 -5.59130 28853 ft 441 kts 329°
2026-05-06 14:47 36.99859 -5.60750 29118 ft 443 kts 329°
2026-05-06 14:47 37.02670 -5.62384 29381 ft 445 kts 329°
2026-05-06 14:47 37.05499 -5.64030 29622 ft 448 kts 329°
2026-05-06 14:48 37.08305 -5.65662 29890 ft 450 kts 328°
2026-05-06 14:48 37.11131 -5.67306 30171 ft 451 kts 328°
2026-05-06 14:48 37.14027 -5.68940 30411 ft 455 kts 330°
2026-05-06 14:48 37.16979 -5.70384 30651 ft 459 kts 333°
2026-05-06 14:49 37.20025 -5.71624 30999 ft 461 kts 337°
2026-05-06 14:49 37.23134 -5.72644 31333 ft 463 kts 340°
2026-05-06 14:49 37.26299 -5.73440 31655 ft 465 kts 344°
2026-05-06 14:49 37.29498 -5.74034 31961 ft 465 kts 346°
2026-05-06 14:50 37.32697 -5.74557 32223 ft 465 kts 345°
2026-05-06 14:50 37.35813 -5.75389 32419 ft 458 kts 336°
2026-05-06 14:50 37.38768 -5.76811 32603 ft 451 kts 327°
2026-05-06 14:50 37.41466 -5.78752 32757 ft 443 kts 318°
2026-05-06 14:51 37.43845 -5.81114 32955 ft 436 kts 310°
2026-05-06 14:51 37.45922 -5.83870 33131 ft 429 kts 302°
2026-05-06 14:51 37.47630 -5.86895 33287 ft 423 kts 294°
2026-05-06 14:51 37.49109 -5.90100 33485 ft 421 kts 292°
2026-05-06 14:52 37.50540 -5.93304 33641 ft 422 kts 292°
2026-05-06 14:52 37.51962 -5.96504 33788 ft 423 kts 292°
2026-05-06 14:52 37.53411 -5.99753 33873 ft 424 kts 292°
2026-05-06 14:53 37.56300 -6.06208 33883 ft 424 kts 292°
2026-05-06 14:53 37.59196 -6.12672 33888 ft 425 kts 293°
2026-05-06 14:54 37.62079 -6.19118 33882 ft 425 kts 293°
2026-05-06 14:54 37.64992 -6.25641 33884 ft 425 kts 293°
2026-05-06 14:55 37.67878 -6.32113 33885 ft 426 kts 293°
2026-05-06 14:55 37.70776 -6.38629 33892 ft 426 kts 293°
2026-05-06 14:56 37.73661 -6.45133 33900 ft 426 kts 294°
2026-05-06 14:56 37.76555 -6.51671 33902 ft 427 kts 294°
2026-05-06 14:57 37.79448 -6.58222 33900 ft 428 kts 294°
2026-05-06 14:57 37.82352 -6.64812 33893 ft 428 kts 294°
2026-05-06 14:58 37.84963 -6.70748 33886 ft 428 kts 294°
2026-05-06 14:58 37.85934 -6.72959 33884 ft 428 kts 294°
2026-05-06 14:59 37.88289 -6.78322 33888 ft 428 kts 294°
2026-05-06 14:59 37.91175 -6.84912 33884 ft 429 kts 294°
2026-05-06 15:00 37.94894 -6.90919 33885 ft 441 kts 312°
2026-05-06 15:00 37.98933 -6.94714 33892 ft 450 kts 325°
2026-05-06 15:01 38.04320 -6.97820 33893 ft 456 kts 333°
2026-05-06 15:01 38.10209 -7.00838 33897 ft 456 kts 333°
2026-05-06 15:02 38.16099 -7.03879 33890 ft 454 kts 333°
2026-05-06 15:02 38.21923 -7.06911 33890 ft 453 kts 333°
2026-05-06 15:03 38.27738 -7.09952 33905 ft 451 kts 333°
2026-05-06 15:03 38.33504 -7.12974 33907 ft 451 kts 333°
2026-05-06 15:04 38.39336 -7.16040 33909 ft 452 kts 333°
2026-05-06 15:04 38.45130 -7.19090 33907 ft 451 kts 333°
2026-05-06 15:05 38.50921 -7.22144 33905 ft 449 kts 333°
2026-05-06 15:05 38.56671 -7.25181 33903 ft 449 kts 333°
2026-05-06 15:06 38.62451 -7.28241 33905 ft 449 kts 333°
2026-05-06 15:06 38.68193 -7.31283 33905 ft 448 kts 333°
2026-05-06 15:07 38.73956 -7.34345 33913 ft 448 kts 333°
2026-05-06 15:07 38.79704 -7.37403 33907 ft 448 kts 333°
2026-05-06 15:08 38.85447 -7.40464 33910 ft 447 kts 333°
2026-05-06 15:08 38.91188 -7.43528 33914 ft 447 kts 334°
2026-05-06 15:09 38.96902 -7.46585 33910 ft 446 kts 334°
2026-05-06 15:09 39.02621 -7.49649 33916 ft 446 kts 334°
2026-05-06 15:10 39.08349 -7.52722 33906 ft 446 kts 334°
2026-05-06 15:10 39.14064 -7.55794 33917 ft 446 kts 334°
2026-05-06 15:11 39.19669 -7.58812 33912 ft 446 kts 334°
2026-05-06 15:11 39.25360 -7.61882 33900 ft 445 kts 334°
2026-05-06 15:12 39.31070 -7.64968 33910 ft 444 kts 334°
2026-05-06 15:12 39.36753 -7.68046 33565 ft 444 kts 333°
2026-05-06 15:12 39.39601 -7.69590 33322 ft 442 kts 333°
2026-05-06 15:13 39.42419 -7.71119 33085 ft 441 kts 333°
2026-05-06 15:13 39.45225 -7.72642 32825 ft 439 kts 333°
2026-05-06 15:13 39.48037 -7.74172 32398 ft 440 kts 333°
2026-05-06 15:13 39.50863 -7.75711 31739 ft 443 kts 333°
2026-05-06 15:14 39.53694 -7.77255 31178 ft 441 kts 334°
2026-05-06 15:14 39.56523 -7.78796 30658 ft 439 kts 334°
2026-05-06 15:14 39.59327 -7.80325 30118 ft 438 kts 334°
2026-05-06 15:14 39.62116 -7.81846 29629 ft 434 kts 334°
2026-05-06 15:15 39.64884 -7.83358 29167 ft 430 kts 334°
2026-05-06 15:15 39.67617 -7.84852 28731 ft 426 kts 334°
2026-05-06 15:15 39.70367 -7.86356 28302 ft 422 kts 334°
2026-05-06 15:15 39.73048 -7.87825 27875 ft 418 kts 334°
2026-05-06 15:16 39.75712 -7.89286 27436 ft 414 kts 334°
2026-05-06 15:16 39.78352 -7.90734 26991 ft 411 kts 334°
2026-05-06 15:16 39.80960 -7.92167 26548 ft 408 kts 334°
2026-05-06 15:16 39.83563 -7.93599 26094 ft 405 kts 334°
2026-05-06 15:17 39.86155 -7.95026 25632 ft 403 kts 334°
2026-05-06 15:17 39.88707 -7.96430 25183 ft 400 kts 334°
2026-05-06 15:17 39.91272 -7.97843 24730 ft 398 kts 334°
2026-05-06 15:17 39.93791 -7.99232 24301 ft 395 kts 334°
2026-05-06 15:18 39.96312 -8.00624 23868 ft 392 kts 334°
2026-05-06 15:18 39.98818 -8.02008 23443 ft 389 kts 334°
2026-05-06 15:18 40.01304 -8.03385 23030 ft 387 kts 334°
2026-05-06 15:18 40.03752 -8.04741 22610 ft 384 kts 334°
2026-05-06 15:19 40.06209 -8.06101 22188 ft 382 kts 334°
2026-05-06 15:19 40.08641 -8.07450 21764 ft 379 kts 334°
2026-05-06 15:19 40.11063 -8.08795 21303 ft 378 kts 335°
2026-05-06 15:19 40.13461 -8.10126 20868 ft 376 kts 335°
2026-05-06 15:20 40.15866 -8.11461 20409 ft 375 kts 335°
2026-05-06 15:20 40.18276 -8.12802 19973 ft 373 kts 335°
2026-05-06 15:20 40.20676 -8.14137 19527 ft 371 kts 335°
2026-05-06 15:20 40.23031 -8.15448 19097 ft 369 kts 335°
2026-05-06 15:21 40.25384 -8.16759 18691 ft 367 kts 335°
2026-05-06 15:21 40.27714 -8.18057 18268 ft 365 kts 335°
2026-05-06 15:21 40.30037 -8.19354 17880 ft 362 kts 336°
2026-05-06 15:21 40.32357 -8.20651 17467 ft 361 kts 336°
2026-05-06 15:22 40.34659 -8.21936 17025 ft 358 kts 336°
2026-05-06 15:22 40.36931 -8.23206 16656 ft 356 kts 336°
2026-05-06 15:22 40.39212 -8.24481 16227 ft 355 kts 336°
2026-05-06 15:22 40.41461 -8.25741 15789 ft 353 kts 336°
2026-05-06 15:23 40.43719 -8.27007 15370 ft 351 kts 336°
2026-05-06 15:23 40.45983 -8.28276 14938 ft 350 kts 336°
2026-05-06 15:23 40.48188 -8.29513 14539 ft 348 kts 336°
2026-05-06 15:23 40.50417 -8.30765 14141 ft 346 kts 336°
2026-05-06 15:24 40.52627 -8.32007 13716 ft 343 kts 336°
2026-05-06 15:24 40.54807 -8.33235 13300 ft 341 kts 336°
2026-05-06 15:24 40.56988 -8.34464 12896 ft 340 kts 336°
2026-05-06 15:24 40.59147 -8.35681 12464 ft 338 kts 336°
2026-05-06 15:25 40.61299 -8.36895 12037 ft 336 kts 336°
2026-05-06 15:25 40.63453 -8.38111 11604 ft 335 kts 337°
2026-05-06 15:25 40.65581 -8.39314 11182 ft 334 kts 337°
2026-05-06 15:25 40.67697 -8.40510 10948 ft 321 kts 337°
2026-05-06 15:26 40.69658 -8.41619 10932 ft 300 kts 337°
2026-05-06 15:26 40.71543 -8.42685 10928 ft 285 kts 337°
2026-05-06 15:26 40.73296 -8.43789 10790 ft 281 kts 334°
2026-05-06 15:26 40.75055 -8.44989 10212 ft 287 kts 333°
2026-05-06 15:27 40.76806 -8.46201 9688 ft 288 kts 333°
2026-05-06 15:27 40.78596 -8.47440 9197 ft 289 kts 334°
2026-05-06 15:27 40.80380 -8.48673 8732 ft 288 kts 333°
2026-05-06 15:27 40.82133 -8.49885 8281 ft 286 kts 333°
2026-05-06 15:28 40.83890 -8.51101 7834 ft 286 kts 333°
2026-05-06 15:28 40.85649 -8.52318 7384 ft 287 kts 334°
2026-05-06 15:28 40.87429 -8.53551 6920 ft 288 kts 334°
2026-05-06 15:28 40.89212 -8.54785 6458 ft 289 kts 334°
2026-05-06 15:29 40.90974 -8.56007 6059 ft 286 kts 334°
2026-05-06 15:29 40.92676 -8.57190 5952 ft 266 kts 334°
2026-05-06 15:29 40.94291 -8.58312 5738 ft 258 kts 334°
2026-05-06 15:29 40.95831 -8.59434 5430 ft 253 kts 331°
2026-05-06 15:30 40.97361 -8.60573 5061 ft 248 kts 336°
2026-05-06 15:30 40.98958 -8.61358 4709 ft 242 kts 346°
2026-05-06 15:30 41.00574 -8.61843 4428 ft 234 kts 350°
2026-05-06 15:30 41.02145 -8.62230 4149 ft 227 kts 351°
2026-05-06 15:31 41.03674 -8.62603 3960 ft 219 kts 350°
2026-05-06 15:31 41.05146 -8.62974 3854 ft 211 kts 350°
2026-05-06 15:31 41.06571 -8.63342 3580 ft 205 kts 349°
2026-05-06 15:32 41.09315 -8.64064 2996 ft 196 kts 349°
2026-05-06 15:32 41.10628 -8.64410 2716 ft 185 kts 349°
2026-05-06 15:32 41.11848 -8.64731 2460 ft 173 kts 349°
2026-05-06 15:32 41.12990 -8.65031 2259 ft 159 kts 348°
2026-05-06 15:33 41.14010 -8.65298 2069 ft 153 kts 348°
2026-05-06 15:33 41.15049 -8.65570 1882 ft 152 kts 348°
2026-05-06 15:33 41.16085 -8.65841 1691 ft 150 kts 348°
2026-05-06 15:33 41.17071 -8.66099 1484 ft 137 kts 348°
2026-05-06 15:34 41.17994 -8.66340 1307 ft 135 kts 347°
2026-05-06 15:34 41.18917 -8.66583 1135 ft 134 kts 347°
2026-05-06 15:34 41.19844 -8.66808 961 ft 134 kts 348°
2026-05-06 15:34 41.20764 -8.67042 794 ft 134 kts 347°
2026-05-06 15:35 41.21676 -8.67288 610 ft 134 kts 346°
2026-05-06 15:35 41.22587 -8.67536 429 ft 133 kts 346°
2026-05-06 15:35 41.23500 -8.67779 258 ft 132 kts 346°
2026-05-06 15:35 41.24311 -8.67997 235 ft 99 kts 349°
2026-05-06 15:36 41.24826 -8.68129 235 ft 49 kts 348°
2026-05-06 15:36 41.25052 -8.68170 235 ft 20 kts
2026-05-06 15:36 41.25143 -8.68157 235 ft 5 kts 12°
2026-05-06 15:36 41.25152 -8.68154 235 ft 0 kts 13°
2026-05-06 15:37 41.25153 -8.68154 235 ft 0 kts 13°
2026-05-06 15:37 41.25156 -8.68153 235 ft 0 kts 12°
2026-05-06 15:37 41.25164 -8.68150 235 ft 1 kts 14°
2026-05-06 15:38 41.25177 -8.68146 235 ft 2 kts 17°
2026-05-06 15:38 41.25194 -8.68138 235 ft 3 kts 18°
2026-05-06 15:38 41.25217 -8.68128 235 ft 3 kts 17°
2026-05-06 15:38 41.25246 -8.68116 235 ft 4 kts 18°
2026-05-06 15:39 41.25279 -8.68097 235 ft 6 kts 36°
2026-05-06 15:39 41.25272 -8.68027 235 ft 12 kts 148°
2026-05-06 15:39 41.25170 -8.67990 235 ft 16 kts 169°
2026-05-06 15:39 41.25060 -8.67961 235 ft 16 kts 168°
2026-05-06 15:40 41.24950 -8.67932 235 ft 16 kts 169°
2026-05-06 15:40 41.24844 -8.67886 235 ft 16 kts 151°
2026-05-06 15:40 41.24742 -8.67822 235 ft 16 kts 167°
2026-05-06 15:40 41.24633 -8.67795 235 ft 16 kts 169°
2026-05-06 15:41 41.24524 -8.67766 235 ft 16 kts 168°
2026-05-06 15:41 41.24414 -8.67738 235 ft 16 kts 169°
2026-05-06 15:41 41.24307 -8.67700 235 ft 16 kts 149°
2026-05-06 15:41 41.24229 -8.67594 235 ft 16 kts 149°
2026-05-06 15:42 41.24120 -8.67555 235 ft 16 kts 169°
2026-05-06 15:42 41.24010 -8.67527 235 ft 16 kts 168°
2026-05-06 15:42 41.23904 -8.67499 235 ft 14 kts 169°
2026-05-06 15:42 41.23804 -8.67473 235 ft 14 kts 168°
2026-05-06 15:43 41.23749 -8.67441 235 ft 4 kts 100°
2026-05-06 15:43 41.23770 -8.67399 235 ft 5 kts 46°
2026-05-06 15:43 41.23788 -8.67374 235 ft 2 kts 49°
2026-05-06 15:43 41.23793 -8.67366 235 ft 0 kts 47°